This demonstration page uses our WeatherBlox Daily Observations layout. Learn more.

Left ArrowRight Arrow

39.51506, -84.39828

Hourly Observations for April 11, 2017

Temp ( °F °C ) Dew Point ( °F °C ) Humidity (%) Winds ( mph kmh ) Pressure ( in mb ) Visibility ( mi km ) Precip ( " mm )
12:15 am 00:15 Clear 69 20.8 42 5.6 37 37 SSW 10 17 30.03 1017 10 16 0.00 0.00
12:35 am 00:35 Clear 69 20.8 38 3.2 31 31 S 12 19 30.03 1017 10 16 0.00 0.00
12:55 am 00:55 Clear 69 20.8 39 3.7 33 33 SSW 9 15 30.03 1017 10 16 0.00 0.00
1:15 am 01:15 Partly Cloudy 69 20.8 38 3.5 32 32 SSW 9 15 30.03 1017 10 16 0.00 0.00
1:35 am 01:35 Mostly Cloudy 69 20.8 38 3.1 31 31 SSW 8 13 30.03 1017 10 16 0.00 0.00
1:55 am 01:55 Cloudy 69 20.8 37 2.6 30 30 SSW 12 19 30.03 1017 10 16 0.00 0.00
2:15 am 02:15 Cloudy 69 20.8 37 2.7 30 30 SSW 9 15 30.03 1017 10 16 0.00 0.00
2:35 am 02:35 Cloudy 69 20.8 37 3 31 31 SW 9 15 30.03 1017 10 16 0.00 0.00
2:55 am 02:55 Cloudy 69 20.8 36 2.1 29 29 SSW 10 17 30.03 1017 10 16 0.00 0.00
3:15 am 03:15 Cloudy 69 20.8 37 3 31 31 SSW 8 13 30.03 1017 10 16 0.00 0.00
3:35 am 03:35 Cloudy 69 20.8 37 3 31 31 SSW 9 15 30.03 1017 10 16 0.00 0.00
3:55 am 03:55 Partly Cloudy 69 20.8 40 4.4 34 34 SSW 8 13 30.03 1017 10 16 0.00 0.00
4:15 am 04:15 Mostly Cloudy 69 20.8 40 4.6 35 35 SSW 6 9 30.03 1017 10 16 0.00 0.00
4:35 am 04:35 Mostly Cloudy 69 20.6 42 5.6 38 38 S 5 7 30.03 1017 10 16 0.00 0.00
4:55 am 04:55 Partly Cloudy 67 19.5 42 5.3 40 40 S 6 9 30.03 1017 10 16 0.00 0.00
5:15 am 05:15 Mostly Cloudy 68 20 42 5.7 39 39 S 5 7 30.03 1017 10 16 0.00 0.00
5:35 am 05:35 Cloudy 69 20.8 44 6.4 39 39 S 3 6 30.03 1017 10 16 0.00 0.00
5:55 am 05:55 Cloudy with Light Rain 67 19.5 44 6.6 43 43 S 5 7 30.03 1017 10 16 0.00 0.00
6:15 am 06:15 Cloudy with Light Rain 61 16.2 47 8.5 61 61 Calm 30.03 1017 10 16 0.00 0.00
6:35 am 06:35 Cloudy with Light Rain 60 15.8 49 9.5 66 66 SW 9 15 30.12 1020 10 16 0.00 0.00
6:55 am 06:55 Cloudy with Rain 60 15.3 52 11.3 77 77 SSW 14 22 30.12 1020 7 11 0.00 0.00
7:15 am 07:15 Cloudy with Rain 60 15.3 53 11.7 79 79 SSW 7 11 30.12 1020 7 11 0.00 0.00
7:35 am 07:35 Cloudy with Rain 60 15.3 53 11.9 80 80 S 3 6 30.12 1020 7 11 0.00 0.00
7:55 am 07:55 Cloudy with Light Rain 60 15.3 54 12 81 81 S 3 6 30.12 1020 7 11 0.00 0.00
8:15 am 08:15 Cloudy with Light Rain 60 15.3 54 12 81 81 SSW 12 19 30.15 1021 10 16 0.00 0.00
8:35 am 08:35 Cloudy with Light Rain 60 15.3 54 12 81 81 S 7 11 30.15 1021 10 16 0.00 0.00
8:55 am 08:55 Cloudy with Rain 60 15.5 54 12.1 80 80 S 6 9 30.15 1021 10 16 0.00 0.00
9:15 am 09:15 Cloudy 61 15.9 55 12.5 80 80 SSW 8 13 30.15 1021 10 16 0.00 0.00
9:35 am 09:35 Cloudy with Light Rain 61 16 55 12.7 81 81 S 6 9 30.15 1021 10 16 0.00 0.00
9:55 am 09:55 Cloudy 61 16 55 12.7 81 81 S 7 11 30.15 1021 7 11 0.00 0.00
10:15 am 10:15 Cloudy 62 16.6 56 13.3 81 81 SSW 7 11 30.18 1022 10 16 0.00 0.00
10:35 am 10:35 Cloudy 62 16.8 56 13.3 80 80 SW 9 15 30.18 1022 10 16 0.00 0.00
10:55 am 10:55 Cloudy with Light Rain 62 16.6 56 13.1 80 80 SW 7 11 30.18 1022 7 11 0.00 0.00
11:15 am 11:15 Cloudy with Haze 62 16.6 56 13.2 80 80 SW 6 9 30.18 1022 5 8 0.00 0.00
11:35 am 11:35 Cloudy 62 16.6 55 12.6 77 77 SW 5 7 30.18 1022 10 16 0.00 0.00
11:55 am 11:55 Cloudy 63 17 54 12.1 73 73 SSW 6 9 30.21 1023 10 16 0.00 0.00
12:15 pm 12:15 Cloudy 63 17.2 55 12.8 76 76 SSW 6 9 30.18 1022 10 16 0.00 0.00
12:35 pm 12:35 Mostly Cloudy 64 18 56 13.1 73 73 WSW 6 9 30.15 1021 10 16 0.00 0.00
12:55 pm 12:55 Mostly Cloudy 67 19.5 52 11.1 58 58 WSW 6 9 30.15 1021 10 16 0.00 0.00
1:15 pm 13:15 Partly Cloudy 67 19.6 52 11.1 58 58 SW 5 7 30.15 1021 10 16 0.00 0.00
1:35 pm 13:35 Mostly Cloudy 67 19.5 52 11.2 59 59 SW 8 13 30.15 1021 10 16 0.00 0.00
1:55 pm 13:55 Cloudy 65 18.4 47 8.1 51 51 SW 7 11 30.18 1022 10 16 0.00 0.00
2:15 pm 14:15 Mostly Cloudy 68 20.1 49 9.7 51 51 W 7 11 30.15 1021 10 16 0.00 0.00
2:35 pm 14:35 Partly Cloudy 69 20.8 51 10.4 52 52 WSW 9 15 30.15 1021 10 16 0.00 0.00
2:55 pm 14:55 Partly Cloudy 69 20.8 50 9.9 50 50 WSW 7 11 30.15 1021 10 16 0.00 0.00
3:15 pm 15:15 Sunny 69 20.8 49 9.7 49 49 SW 10 17 30.15 1021 10 16 0.00 0.00
3:35 pm 15:35 Sunny 69 20.8 49 9.4 48 48 SW 10 17 30.15 1021 10 16 0.00 0.00
3:55 pm 15:55 Sunny 69 20.8 49 9.2 48 48 SSW 8 13 30.15 1021 10 16 0.00 0.00
4:15 pm 16:15 Sunny 69 20.8 49 9.2 48 48 SSW 7 11 30.12 1020 10 16 0.00 0.00
4:35 pm 16:35 Sunny 69 20.8 46 7.6 43 43 SW 10 17 30.15 1021 10 16 0.00 0.00
4:55 pm 16:55 Sunny 69 20.8 45 7.1 41 41 W 9 15 30.15 1021 10 16 0.00 0.00
5:15 pm 17:15 Sunny 69 20.8 45 7.2 42 42 W 10 17 30.15 1021 10 16 0.00 0.00
5:40 pm 17:40 Sunny 69 20.8 45 7.2 42 42 W 9 15 30.15 1021 10 16 0.00 0.00
5:55 pm 17:55 Sunny 69 20.8 46 7.8 43 43 W 7 11 30.15 1021 10 16 0.00 0.00
6:15 pm 18:15 Sunny 67 19.5 42 5.5 40 40 W 8 13 30.15 1021 10 16 0.00 0.00
6:35 pm 18:35 Sunny 67 19.5 43 6.1 42 42 W 7 11 30.15 1021 10 16 0.00 0.00
6:55 pm 18:55 Sunny 65 18.1 41 5.2 43 43 WNW 7 11 30.15 1021 10 16 0.00 0.00
7:15 pm 19:15 Sunny 64 18 41 4.8 42 42 WNW 7 11 30.15 1021 10 16 0.00 0.00
7:35 pm 19:35 Sunny 63 17.2 42 5.4 46 46 WNW 7 11 30.18 1022 10 16 0.00 0.00
7:55 pm 19:55 Sunny 63 17 42 5.7 48 48 NW 12 19 30.21 1023 10 16 0.00 0.00
8:15 pm 20:15 Clear 61 16 44 6.5 54 54 NW 7 11 30.21 1023 10 16 0.00 0.00
8:35 pm 20:35 Clear 61 16 44 6.6 54 54 NW 8 13 30.21 1023 10 16 0.00 0.00
8:55 pm 20:55 Clear 60 15.3 44 6.9 58 58 NNW 9 15 30.24 1024 10 16 0.00 0.00
9:15 pm 21:15 Clear 60 15.3 45 7.1 58 58 WNW 5 7 30.24 1024 10 16 0.00 0.00
9:35 pm 21:35 Clear 57 13.9 43 6.1 60 60 NW 3 6 30.27 1025 10 16 0.00 0.00
9:55 pm 21:55 Clear 57 13.8 44 6.5 62 62 NW 3 6 30.27 1025 10 16 0.00 0.00
10:15 pm 22:15 Clear 57 13.8 44 6.5 62 62 Calm 30.27 1025 10 16 0.00 0.00
10:35 pm 22:35 Clear 56 13.3 44 6.6 64 64 Calm 30.27 1025 10 16 0.00 0.00
10:55 pm 22:55 Clear 56 13.1 44 6.5 65 65 Calm 30.27 1025 10 16 0.00 0.00
11:15 pm 23:15 Clear 55 12.5 43 6.1 65 65 Calm 30.27 1025 10 16 0.00 0.00
11:35 pm 23:35 Clear 55 12.5 45 7.2 70 70 Calm 30.27 1025 10 16 0.00 0.00
11:55 pm 23:55 Clear 55 12.5 47 8.3 76 76 Calm 30.27 1025 10 16 0.00 0.00

Powered by AerisWeather